Temp
-12 -11 -11 -10 -10 -9 -9 -10 -10 -11 -11 -11 -12 -13 -14 -13 -13 -13 -13 -13 -13 -13 -12 -12 -12 -11 -11 -11 -11 -10 -9 -9 -8 -8 -8 -8 -8 -7 -7 -6 -6 -6 -6 -6 -6 -6 -5 -3 -2 -2 -2 -2 -2 -2
-13 -12 -11 -10 -10 -10 -10 -10 -10 -11 -11 -11 -12 -12 -13 -13 -13 -13 -13 -13 -13 -13 -12 -11 -11 -11 -11 -11 -11 -10 -10 -10 -10 -9 -9 -9 -8 -7 -7 -6 -6 -7 -5 -5 -5 -5 -4 -3 -3 -3 -3 -3 -3 -3
-12 -12 -11 -12 -10 -10 -10 -10 -11 -11 -11 -11 -12 -12 -13 -13 -13 -13 -13 -13 -13 -13 -11 -10 -10 -11 -11 -10 -11 -11 -10 -10 -10 -10 -10 -9 -8 -8 -7 -7 -7 -6 -6 -5 -5 -4 -4 -3 -3 -3 -4 -3 -3 -3
-13 -11 -11 -11 -10 -10 -11 -11 -11 -11 -11 -11 -12 -12 -12 -13 -13 -13 -12 -12 -13 -13 -12 -9 -10 -10 -10 -10 -10 -11 -10 -9 -10 -10 -10 -9 -9 -8 -8 -7 -7 -6 -6 -5 -5 -4 -4 -4 -4 -4 -4 -4 -4 -3
-13 -12 -11 -11 -11 -11 -11 -11 -11 -11 -11 -11 -12 -12 -13 -13 -13 -12 -12 -12 -12 -12 -11 -10 -10 -9 -9 -10 -10 -10 -10 -10 -10 -10 -10 -9 -9 -8 -7 -7 -6 -6 -6 -6 -5 -5 -4 -4 -4 -5 -4 -4 -4 -3
-13 -12 -11 -11 -10 -11 -11 -11 -11 -11 -11 -11 -11 -12 -13 -12 -12 -12 -12 -11 -11 -11 -12 -12 -10 -9 -10 -9 -10 -10 -10 -10 -10 -10 -9 -8 -9 -8 -8 -7 -7 -7 -7 -6 -5 -5 -5 -5 -5 -5 -5 -4 -4 -4
-12 -11 -11 -11 -11 -11 -11 -11 -11 -11 -10 -10 -11 -11 -12 -12 -12 -12 -11 -10 -10 -10 -11 -11 -11 -9 -9 -10 -9 -10 -10 -10 -11 -10 -9 -8 -8 -9 -8 -8 -7 -6 -6 -6 -5 -5 -5 -5 -5 -5 -5 -5 -5 -4
-11 -11 -11 -11 -11 -11 -11 -11 -11 -11 -11 -11 -11 -11 -12 -12 -12 -11 -11 -10 -10 -10 -11 -11 -10 -9 -9 -9 -9 -9 -10 -10 -10 -10 -9 -8 -9 -9 -8 -8 -7 -7 -6 -6 -7 -6 -6 -6 -6 -6 -6 -5 -4 -4
-11 -11 -11 -11 -11 -11 -11 -10 -10 -10 -10 -10 -11 -11 -12 -11 -11 -10 -11 -10 -10 -10 -11 -11 -10 -10 -9 -9 -9 -9 -10 -10 -10 -9 -9 -9 -9 -9 -8 -8 -8 -7 -7 -6 -7 -7 -7 -7 -6 -6 -6 -6 -5 -5
-11 -11 -11 -11 -11 -10 -10 -10 -10 -10 -10 -10 -11 -11 -12 -11 -11 -11 -11 -11 -10 -11 -10 -10 -9 -9 -10 -9 -10 -9 -9 -10 -9 -9 -9 -9 -9 -9 -8 -8 -8 -7 -7 -7 -7 -7 -7 -7 -6 -6 -6 -5 -5 -4
-11 -11 -10 -10 -10 -10 -10 -10 -10 -10 -10 -11 -11 -11 -11 -11 -11 -11 -10 -11 -11 -11 -10 -9 -8 -9 -9 -10 -9 -9 -9 -9 -9 -8 -8 -8 -8 -9 -8 -8 -7 -7 -7 -7 -7 -7 -6 -6 -6 -5 -5 -5 -5 -5
-10 -10 -10 -10 -10 -10 -10 -10 -10 -10 -10 -10 -10 -11 -11 -11 -11 -10 -10 -10 -10 -9 -9 -8 -8 -8 -9 -9 -8 -8 -9 -8 -8 -8 -8 -8 -8 -8 -7 -7 -7 -7 -8 -7 -7 -7 -7 -6 -6 -6 -6 -5 -5 -5
-10 -10 -10 -10 -10 -10 -10 -10 -10 -10 -10 -11 -11 -11 -11 -11 -11 -10 -10 -10 -9 -8 -8 -8 -8 -9 -9 -9 -9 -8 -8 -8 -8 -8 -8 -8 -8 -8 -8 -8 -8 -7 -7 -7 -7 -7 -7 -7 -6 -6 -6 -5 -5 -5
-10 -9 -10 -10 -10 -10 -10 -10 -10 -10 -11 -11 -11 -11 -10 -10 -10 -9 -8 -8 -8 -8 -8 -8 -8 -9 -9 -9 -8 -8 -8 -8 -8 -8 -8 -8 -8 -8 -8 -8 -8 -7 -7 -7 -7 -7 -7 -7 -7 -6 -6 -6 -6 -6
-9 -10 -10 -10 -10 -10 -10 -10 -10 -10 -11 -10 -10 -10 -10 -9 -9 -8 -9 -9 -8 -8 -8 -9 -9 -9 -9 -9 -9 -8 -8 -9 -9 -8 -9 -9 -9 -9 -8 -8 -8 -8 -8 -7 -7 -7 -7 -6 -6 -6 -6 -6 -6 -6
-10 -10 -10 -10 -10 -10 -10 -10 -10 -11 -11 -10 -9 -9 -9 -9 -9 -8 -8 -8 -8 -8 -9 -9 -9 -9 -9 -9 -9 -9 -9 -9 -9 -9 -10 -9 -9 -9 -9 -8 -8 -8 -7 -7 -7 -7 -7 -7 -7 -7 -7 -7 -8 -8
-9 -10 -10 -10 -10 -10 -10 -10 -11 -10 -10 -9 -9 -9 -8 -8 -8 -8 -8 -8 -8 -9 -9 -9 -9 -8 -9 -9 -9 -10 -10 -10 -10 -10 -10 -9 -9 -9 -9 -9 -8 -8 -8 -8 -9 -8 -8 -8 -9 -9 -9 -9 -10 -10
-9 -10 -10 -10 -10 -10 -10 -11 -11 -10 -9 -9 -9 -9 -9 -9 -9 -9 -9 -10 -9 -9 -10 -10 -9 -9 -9 -9 -9 -9 -9 -9 -10 -10 -9 -9 -10 -10 -10 -9 -9 -10 -10 -10 -10 -10 -10 -10 -10 -10 -11 -11 -11 -12
-9 -10 -10 -10 -9 -9 -10 -10 -10 -9 -9 -8 -8 -9 -9 -9 -9 -10 -10 -10 -10 -10 -10 -10 -9 -9 -9 -9 -9 -10 -10 -11 -12 -12 -12 -12 -12 -11 -11 -11 -11 -11 -11 -11 -11 -11 -11 -11 -11 -12 -12 -13 -13 -14
-10 -10 -10 -10 -10 -10 -9 -9 -9 -8 -9 -9 -9 -10 -10 -10 -10 -11 -11 -11 -11 -10 -10 -10 -10 -9 -10 -11 -11 -11 -12 -12 -12 -13 -13 -13 -13 -12 -12 -12 -12 -13 -13 -13 -13 -13 -13 -13 -13 -14 -14 -15 -15 -15
-10 -10 -10 -10 -10 -9 -9 -9 -9 -9 -9 -10 -11 -11 -11 -11 -11 -11 -11 -11 -11 -11 -11 -11 -11 -11 -12 -12 -12 -13 -14 -14 -14 -14 -14 -13 -14 -14 -14 -14 -14 -14 -14 -14 -15 -15 -15 -15 -15 -15 -16 -16 -16 -16
-10 -10 -10 -10 -9 -9 -10 -10 -10 -10 -11 -12 -12 -12 -12 -12 -12 -12 -11 -11 -11 -11 -12 -13 -13 -13 -14 -14 -14 -15 -15 -15 -15 -15 -15 -15 -15 -15 -15 -15 -15 -15 -16 -16 -16 -16 -16 -16 -16 -16 -16 -16 -16 -16
-10 -10 -10 -10 -10 -10 -12 -12 -12 -12 -13 -13 -13 -13 -13 -13 -13 -13 -12 -13 -14 -15 -15 -15 -15 -15 -15 -15 -15 -15 -15 -15 -16 -16 -16 -16 -16 -16 -16 -16 -16 -16 -17 -17 -17 -17 -17 -17 -17 -17 -16 -16 -16 -16
-10 -10 -10 -9 -10 -11 -12 -12 -12 -12 -13 -13 -13 -13 -13 -13 -14 -13 -13 -15 -15 -15 -15 -15 -16 -16 -16 -16 -16 -16 -16 -16 -17 -17 -17 -17 -17 -17 -17 -17 -17 -17 -17 -17 -17 -17 -17 -17 -17 -17 -17 -17 -17 -17
-10 -9 -10 -10 -11 -12 -12 -11 -12 -11 -12 -12 -12 -13 -14 -14 -14 -14 -14 -15 -15 -16 -16 -16 -16 -16 -16 -17 -17 -17 -17 -17 -17 -18 -18 -18 -18 -18 -18 -18 -18 -18 -18 -18 -18 -18 -18 -18 -18 -18 -18 -18 -18 -18
-9 -9 -10 -10 -11 -10 -11 -11 -11 -12 -12 -12 -13 -13 -13 -13 -13 -14 -14 -15 -15 -16 -17 -17 -17 -17 -17 -18 -18 -18 -18 -18 -18 -18 -18 -19 -19 -19 -19 -19 -19 -19 -19 -19 -19 -19 -19 -18 -18 -18 -18 -18 -19 -19
-9 -9 -9 -9 -9 -9 -10 -11 -11 -11 -11 -11 -12 -12 -12 -13 -13 -14 -15 -15 -16 -17 -17 -18 -18 -18 -18 -19 -19 -19 -19 -19 -19 -19 -19 -19 -19 -19 -19 -20 -20 -20 -20 -20 -19 -19 -19 -19 -19 -19 -19 -19 -20 -20
-8 -9 -9 -9 -9 -9 -10 -10 -10 -10 -10 -11 -11 -12 -12 -13 -14 -15 -15 -16 -16 -17 -18 -18 -18 -19 -19 -19 -19 -20 -20 -20 -20 -20 -20 -20 -20 -20 -20 -20 -20 -20 -20 -20 -20 -20 -20 -20 -20 -20 -20 -20 -20 -21
-8 -9 -9 -9 -9 -10 -10 -10 -10 -11 -11 -11 -11 -12 -12 -13 -13 -14 -15 -16 -16 -17 -18 -18 -19 -19 -19 -20 -20 -20 -20 -20 -21 -21 -21 -21 -21 -21 -21 -21 -21 -21 -21 -21 -21 -21 -21 -21 -21 -21 -21 -21 -21 -22
-9 -9 -9 -10 -9 -10 -10 -11 -11 -11 -12 -12 -12 -12 -13 -13 -14 -14 -15 -16 -17 -17 -17 -18 -19 -19 -20 -20 -20 -20 -21 -21 -21 -21 -21 -21 -21 -21 -21 -21 -21 -21 -21 -21 -21 -21 -21 -21 -21 -21 -21 -21 -21 -21
-9 -9 -9 -9 -10 -11 -12 -12 -12 -12 -13 -13 -13 -14 -14 -14 -14 -15 -16 -16 -17 -17 -18 -18 -18 -19 -20 -20 -20 -21 -21 -21 -21 -21 -21 -21 -21 -21 -21 -21 -21 -21 -21 -21 -21 -21 -21 -22 -22 -22 -22 -22 -22 -22
-9 -10 -9 -9 -10 -11 -12 -12 -13 -13 -13 -13 -13 -14 -14 -14 -15 -15 -16 -16 -17 -17 -18 -18 -19 -19 -20 -20 -20 -21 -21 -21 -21 -21 -21 -21 -21 -21 -21 -21 -21 -22 -22 -22 -22 -22 -22 -22 -22 -22 -22 -22 -22 -22
-10 -10 -9 -10 -11 -12 -12 -13 -13 -13 -13 -14 -14 -14 -14 -15 -15 -15 -16 -16 -17 -18 -18 -19 -19 -19 -20 -20 -21 -21 -21 -21 -21 -21 -21 -22 -22 -22 -22 -22 -22 -22 -22 -22 -22 -22 -22 -22 -22 -22 -23 -23 -23 -23
Height
2901 2906 2910 2915 2919 2923 2925 2928 2931 2934 2936 2939 2942 2945 2949 2953 2956 2957 2961 2962 2964 2965 2967 2969 2971 2972 2973 2975 2975 2976 2978 2976 2975 2975 2973 2972 2971 2970 2968 2965 2963 2962 2966 2968 2974 2976 2975 2970 2972 2975 2976 2974 2973 2975
2891 2895 2901 2906 2910 2914 2917 2920 2923 2926 2930 2932 2935 2939 2943 2947 2951 2953 2956 2959 2961 2961 2962 2964 2966 2968 2970 2972 2974 2974 2976 2976 2976 2975 2974 2972 2969 2967 2965 2960 2955 2955 2959 2962 2966 2966 2966 2969 2969 2970 2970 2972 2974 2975
2880 2887 2890 2896 2901 2905 2908 2912 2916 2919 2923 2926 2929 2934 2938 2942 2947 2950 2953 2956 2957 2958 2957 2959 2963 2967 2966 2968 2970 2970 2973 2975 2975 2973 2973 2971 2966 2966 2964 2961 2955 2951 2957 2959 2962 2963 2964 2967 2967 2968 2968 2971 2973 2974
2871 2876 2883 2888 2892 2896 2900 2904 2908 2912 2916 2920 2924 2928 2932 2937 2942 2946 2949 2952 2954 2957 2955 2956 2959 2961 2964 2964 2965 2967 2970 2971 2972 2973 2972 2972 2968 2965 2963 2962 2956 2953 2953 2955 2958 2959 2962 2964 2966 2966 2967 2970 2972 2971
2862 2868 2873 2879 2884 2888 2893 2897 2901 2906 2910 2914 2918 2923 2928 2933 2938 2942 2945 2947 2950 2956 2952 2954 2955 2957 2959 2960 2962 2964 2965 2967 2968 2970 2970 2970 2967 2966 2963 2961 2953 2953 2951 2954 2954 2955 2957 2959 2961 2964 2966 2968 2969 2969
2853 2859 2865 2870 2876 2881 2885 2890 2895 2900 2905 2909 2914 2918 2923 2929 2935 2940 2942 2944 2946 2949 2952 2950 2953 2956 2957 2958 2960 2961 2962 2963 2964 2965 2966 2966 2968 2966 2962 2960 2957 2955 2954 2953 2951 2949 2950 2955 2957 2960 2963 2965 2967 2967
2844 2851 2857 2862 2868 2874 2879 2884 2890 2896 2900 2906 2911 2915 2921 2926 2931 2935 2940 2941 2942 2946 2948 2949 2948 2949 2952 2954 2956 2958 2958 2958 2961 2962 2961 2962 2965 2965 2961 2959 2958 2958 2956 2954 2952 2951 2952 2951 2957 2960 2962 2963 2964 2964
2837 2843 2849 2856 2861 2867 2874 2880 2886 2891 2897 2903 2908 2913 2919 2924 2929 2932 2937 2938 2940 2943 2945 2946 2946 2947 2948 2950 2950 2952 2954 2957 2957 2958 2958 2958 2961 2960 2958 2956 2956 2956 2956 2955 2954 2955 2955 2954 2958 2959 2958 2958 2958 2958
2830 2837 2843 2849 2856 2863 2869 2875 2881 2887 2893 2901 2907 2913 2917 2921 2926 2931 2935 2937 2939 2944 2942 2940 2941 2943 2945 2945 2946 2949 2950 2952 2954 2953 2955 2957 2956 2955 2952 2951 2953 2954 2954 2954 2955 2956 2956 2957 2957 2957 2956 2954 2954 2954
2826 2832 2838 2845 2852 2858 2864 2871 2877 2883 2890 2897 2904 2908 2914 2918 2925 2930 2933 2935 2936 2937 2936 2935 2938 2940 2943 2942 2943 2945 2945 2949 2948 2949 2953 2951 2950 2947 2947 2947 2948 2949 2950 2951 2951 2952 2953 2952 2951 2951 2950 2949 2948 2949
2823 2829 2835 2841 2848 2855 2861 2868 2873 2881 2886 2891 2898 2906 2912 2919 2924 2928 2929 2930 2932 2932 2932 2932 2934 2936 2939 2939 2940 2941 2941 2943 2944 2944 2945 2944 2944 2942 2942 2942 2943 2944 2945 2946 2946 2946 2946 2945 2945 2945 2944 2943 2942 2942
2819 2825 2832 2839 2846 2852 2859 2866 2871 2875 2882 2890 2897 2905 2912 2918 2922 2924 2924 2926 2926 2928 2928 2929 2930 2933 2936 2936 2935 2936 2937 2939 2938 2938 2940 2938 2936 2937 2938 2939 2940 2940 2940 2940 2941 2941 2940 2939 2938 2938 2938 2937 2937 2936
2815 2822 2829 2836 2843 2850 2857 2864 2871 2880 2886 2894 2902 2908 2912 2916 2916 2917 2918 2921 2922 2922 2924 2927 2929 2930 2933 2935 2935 2934 2935 2934 2935 2934 2932 2932 2932 2933 2935 2936 2936 2937 2937 2936 2935 2935 2934 2934 2933 2933 2932 2931 2930 2930
2807 2815 2825 2834 2842 2850 2857 2865 2872 2880 2887 2895 2902 2905 2909 2911 2912 2913 2916 2917 2919 2921 2923 2925 2927 2929 2931 2933 2934 2933 2934 2934 2933 2933 2931 2932 2931 2932 2933 2933 2934 2934 2933 2933 2932 2931 2930 2929 2928 2927 2926 2925 2924 2924
2803 2814 2825 2834 2844 2852 2859 2867 2874 2882 2889 2896 2901 2903 2904 2906 2908 2910 2913 2916 2919 2921 2922 2924 2927 2929 2930 2931 2931 2932 2931 2931 2930 2927 2928 2928 2929 2930 2930 2930 2930 2930 2929 2929 2928 2926 2924 2922 2921 2919 2918 2916 2915 2914
2812 2821 2831 2840 2847 2855 2863 2870 2878 2886 2893 2896 2898 2900 2902 2905 2907 2909 2912 2915 2918 2920 2922 2924 2925 2927 2927 2928 2928 2928 2929 2926 2925 2926 2926 2926 2926 2927 2926 2926 2925 2924 2923 2921 2919 2917 2914 2912 2910 2909 2907 2905 2904 2904
2826 2830 2841 2848 2855 2862 2868 2876 2883 2890 2895 2896 2897 2898 2901 2904 2906 2909 2911 2913 2915 2918 2920 2922 2922 2923 2923 2923 2924 2923 2923 2924 2924 2924 2924 2924 2923 2923 2922 2921 2919 2918 2916 2913 2911 2908 2906 2904 2901 2899 2898 2896 2895 2894
2839 2846 2853 2858 2863 2870 2876 2883 2888 2892 2894 2895 2897 2899 2901 2903 2905 2907 2908 2910 2913 2915 2917 2919 2920 2920 2920 2919 2920 2920 2920 2920 2921 2922 2921 2921 2920 2920 2919 2917 2915 2912 2910 2907 2905 2903 2900 2897 2895 2893 2891 2890 2889 2889
2852 2856 2862 2867 2873 2875 2881 2887 2891 2892 2894 2896 2898 2899 2901 2903 2904 2905 2907 2909 2912 2914 2917 2917 2919 2917 2918 2918 2918 2918 2918 2918 2919 2919 2919 2919 2918 2917 2914 2912 2910 2908 2906 2904 2901 2899 2896 2894 2892 2891 2889 2888 2887 2887
2862 2866 2869 2873 2877 2881 2885 2888 2890 2893 2895 2896 2897 2898 2900 2901 2902 2904 2905 2907 2909 2912 2914 2914 2915 2915 2916 2916 2916 2917 2916 2916 2915 2916 2916 2915 2913 2912 2910 2908 2906 2904 2903 2901 2899 2898 2896 2894 2893 2891 2889 2889 2889 2889
2869 2873 2876 2879 2882 2885 2886 2888 2890 2892 2893 2895 2897 2899 2900 2901 2902 2903 2905 2906 2908 2909 2910 2911 2911 2912 2912 2912 2913 2913 2913 2913 2912 2912 2912 2911 2910 2909 2908 2906 2904 2903 2901 2899 2898 2897 2897 2896 2894 2894 2893 2893 2893 2893
2871 2874 2877 2880 2882 2884 2886 2887 2889 2891 2894 2895 2897 2899 2900 2901 2901 2902 2903 2905 2905 2906 2907 2908 2908 2909 2909 2910 2910 2911 2911 2911 2910 2909 2909 2908 2907 2906 2905 2904 2902 2901 2899 2899 2898 2897 2897 2897 2897 2896 2896 2896 2896 2896
2873 2876 2878 2880 2883 2885 2888 2888 2890 2891 2894 2895 2897 2899 2899 2900 2901 2902 2903 2903 2903 2905 2906 2907 2908 2909 2909 2909 2910 2909 2909 2908 2908 2907 2906 2905 2904 2904 2903 2902 2901 2900 2899 2899 2898 2898 2898 2898 2897 2897 2897 2896 2896 2896
2876 2878 2880 2880 2881 2882 2886 2887 2889 2891 2893 2896 2897 2898 2900 2900 2901 2901 2902 2903 2904 2905 2906 2907 2908 2908 2908 2908 2908 2907 2906 2906 2905 2904 2903 2903 2902 2901 2901 2900 2900 2900 2899 2899 2898 2898 2897 2897 2896 2896 2895 2895 2894 2894
2880 2880 2880 2879 2881 2884 2886 2888 2890 2891 2893 2896 2897 2898 2900 2901 2902 2902 2904 2905 2905 2906 2907 2908 2908 2908 2907 2907 2906 2905 2904 2904 2903 2902 2901 2901 2900 2900 2899 2899 2898 2898 2898 2897 2897 2896 2896 2895 2895 2894 2893 2893 2892 2892
2877 2877 2879 2878 2881 2884 2885 2888 2890 2892 2894 2896 2898 2900 2901 2903 2903 2905 2906 2907 2907 2907 2908 2908 2908 2907 2907 2906 2906 2904 2904 2902 2901 2900 2900 2899 2898 2898 2897 2897 2896 2896 2895 2895 2894 2894 2893 2893 2892 2892 2891 2890 2890 2890
2876 2876 2877 2879 2881 2883 2886 2889 2892 2894 2896 2897 2899 2900 2902 2903 2905 2907 2907 2907 2907 2907 2907 2907 2907 2906 2906 2905 2904 2903 2902 2901 2900 2900 2898 2897 2897 2896 2895 2894 2894 2893 2892 2892 2891 2891 2890 2890 2889 2889 2888 2888 2888 2887
2875 2877 2879 2882 2884 2888 2889 2892 2894 2896 2897 2899 2900 2901 2903 2904 2907 2907 2907 2907 2907 2907 2907 2907 2906 2905 2905 2904 2903 2902 2901 2900 2899 2898 2897 2896 2895 2894 2893 2892 2891 2891 2890 2889 2889 2888 2888 2887 2887 2886 2886 2886 2886 2886
2878 2880 2885 2886 2889 2891 2893 2895 2896 2897 2899 2900 2901 2902 2904 2906 2907 2907 2908 2907 2907 2907 2907 2906 2905 2904 2903 2902 2901 2900 2899 2898 2898 2896 2895 2894 2893 2892 2891 2890 2889 2889 2888 2887 2887 2886 2886 2885 2885 2884 2884 2884 2884 2884
2881 2883 2887 2889 2892 2893 2896 2898 2899 2900 2902 2904 2906 2905 2907 2907 2908 2908 2908 2908 2907 2907 2906 2906 2904 2903 2901 2900 2899 2898 2898 2897 2896 2895 2893 2892 2891 2890 2889 2888 2888 2887 2886 2886 2885 2885 2884 2883 2883 2883 2882 2882 2882 2881
2883 2886 2889 2891 2892 2896 2898 2900 2902 2904 2905 2907 2907 2908 2909 2909 2909 2909 2908 2907 2906 2906 2905 2904 2903 2902 2900 2899 2898 2897 2896 2895 2894 2893 2892 2891 2890 2888 2887 2886 2885 2885 2884 2883 2883 2882 2882 2881 2880 2880 2879 2879 2878 2877
2884 2887 2890 2891 2893 2897 2899 2902 2904 2906 2907 2909 2909 2910 2910 2910 2910 2910 2909 2908 2907 2906 2905 2903 2902 2901 2900 2898 2897 2896 2895 2894 2892 2891 2890 2889 2888 2886 2885 2884 2883 2882 2882 2881 2880 2880 2879 2879 2878 2877 2876 2876 2876 2875
2885 2888 2891 2892 2895 2897 2900 2903 2905 2907 2908 2909 2910 2910 2910 2911 2910 2910 2909 2907 2907 2905 2904 2902 2901 2900 2899 2897 2896 2895 2894 2892 2891 2890 2889 2887 2886 2885 2884 2883 2882 2881 2880 2879 2878 2877 2877 2876 2875 2875 2874 2873 2872 2871
Wind_Speed
33 33 34 29 26 25 25 23 23 23 22 22 21 20 23 21 21 23 18 21 23 26 25 21 14 14 15 14 12 13 8 5 5 6 5 6 9 9 11 13 13 18 20 24 20 11 11 1 5 3 3 2 0 4
34 33 32 30 26 25 24 23 23 23 22 22 21 20 23 26 25 24 22 21 21 24 22 14 18 18 16 15 18 16 11 11 9 9 10 10 12 10 14 10 14 12 21 24 18 16 8 5 5 11 12 6 5 5
34 34 33 29 26 26 25 23 23 22 22 21 21 22 23 24 25 25 23 19 19 23 26 24 18 15 15 13 17 20 18 16 14 11 18 20 5 7 9 14 26 5 21 11 15 15 13 8 9 7 5 3 6 8
33 34 33 31 28 27 25 24 23 22 22 22 22 22 23 23 24 24 23 20 21 23 26 19 13 11 13 15 15 16 15 21 23 25 22 14 18 9 13 18 19 10 19 20 15 11 11 16 11 10 9 8 7 10
31 32 30 27 28 26 25 24 23 22 22 21 23 23 24 24 23 23 23 23 22 23 14 2 1 9 12 13 9 12 16 19 19 21 21 20 17 12 10 14 12 12 15 7 6 12 15 17 19 8 13 9 9 10
32 31 28 27 28 26 25 23 22 21 21 19 19 19 20 21 21 19 20 21 23 23 25 30 18 10 8 10 15 16 9 14 17 18 23 26 16 12 9 8 13 19 19 10 9 7 10 14 12 14 8 7 10 12
31 29 29 29 27 25 24 22 22 21 20 20 19 17 19 23 25 25 18 18 15 18 28 30 30 14 14 19 19 16 13 15 16 19 21 22 13 12 16 17 12 12 14 10 5 8 9 13 8 4 3 7 10 10
29 29 28 27 26 25 25 23 23 21 20 21 18 18 20 23 23 23 17 9 7 8 26 14 9 12 7 8 10 14 16 17 18 18 22 21 15 14 7 8 9 10 11 13 14 9 10 8 7 10 14 16 16 16
27 27 28 27 27 27 25 23 20 21 25 25 21 21 22 26 22 17 18 8 10 11 11 15 19 15 11 12 6 14 19 21 18 20 20 15 13 8 11 12 12 10 11 13 11 9 10 13 14 16 18 20 21 21
24 25 25 28 26 24 25 23 20 21 23 29 29 31 29 28 21 16 16 18 15 16 18 21 18 16 17 20 18 17 20 20 11 20 16 22 22 22 22 22 24 21 18 17 17 14 18 20 22 26 23 22 24 23
22 24 25 26 27 26 21 18 22 25 30 39 38 33 27 23 21 19 9 16 13 10 16 21 19 17 16 15 16 11 9 11 8 12 12 8 14 24 26 27 26 26 27 26 25 26 27 26 25 22 21 20 20 20
22 22 24 24 25 26 23 27 30 34 37 40 38 29 26 21 10 11 10 10 8 11 6 7 9 15 15 12 8 13 7 9 6 10 11 8 20 23 24 26 27 26 23 17 17 18 19 21 21 19 18 16 17 17
22 25 26 25 23 28 28 31 34 31 38 38 32 25 18 14 8 9 10 8 11 9 14 12 7 13 14 9 6 5 6 6 2 4 7 10 17 21 20 19 17 18 21 21 20 20 18 18 18 18 19 20 20 19
22 27 28 29 30 33 33 33 32 38 40 35 21 18 9 9 10 10 16 16 16 11 6 10 8 10 15 7 6 2 2 3 3 4 5 4 7 9 11 13 14 14 14 16 17 17 16 17 18 18 19 20 21 21
27 31 31 32 34 32 34 40 34 42 40 16 11 9 12 11 17 15 10 12 14 11 7 13 11 10 7 6 4 5 4 3 5 7 6 7 9 10 10 12 13 14 15 16 17 20 22 24 25 26 26 27 27 28
36 37 36 38 33 37 36 36 38 40 26 14 7 11 14 13 16 17 15 7 12 16 10 13 8 6 8 5 6 6 4 6 7 6 6 7 8 8 9 11 14 17 20 23 25 28 28 28 27 27 27 26 26 25
42 44 36 36 38 35 38 37 41 27 15 7 12 14 19 14 17 18 19 18 16 17 17 10 7 6 5 5 7 7 7 7 6 5 6 9 13 14 14 16 19 24 26 26 26 25 24 24 24 23 22 22 21 20
40 36 35 33 30 31 35 38 32 11 10 10 15 16 15 13 16 19 21 18 17 19 21 15 8 10 6 6 11 14 15 14 12 12 13 15 15 16 17 18 19 19 19 19 19 20 19 18 18 17 16 15 14 12
31 29 27 27 40 27 28 25 17 11 11 9 11 13 11 10 11 12 14 15 15 16 21 18 9 11 15 15 12 13 15 14 12 13 12 12 13 15 17 18 18 17 18 16 15 14 13 12 11 9 7 6 5 3
25 23 21 23 27 15 8 12 12 12 13 11 8 9 8 7 8 9 10 13 17 19 18 16 13 11 7 10 11 11 12 15 16 14 13 13 15 15 15 15 15 14 13 11 10 8 6 4 2 2 3 4 7 8
17 19 24 25 22 14 7 12 11 6 10 9 9 8 7 8 8 8 8 10 13 17 17 14 12 12 12 11 11 11 11 13 15 14 14 13 14 13 11 11 9 7 5 3 3 3 3 4 5 6 8 9 9 9
15 15 16 11 13 11 5 8 9 11 11 13 11 9 9 8 8 8 9 11 12 11 10 9 8 7 6 6 6 8 9 10 11 13 13 12 12 10 8 6 4 3 1 3 4 6 6 7 7 7 6 5 4 3
13 15 14 15 9 6 13 16 15 12 9 13 11 9 8 7 6 7 5 6 9 7 4 3 1 1 3 4 5 7 8 9 9 9 10 9 8 7 6 4 3 1 2 2 3 4 4 3 2 2 3 3 4 4
14 13 10 5 6 7 19 12 13 12 12 12 8 7 7 6 6 5 7 9 7 6 5 3 3 2 3 4 5 6 7 8 8 8 8 7 7 7 6 5 4 4 4 4 3 3 3 3 3 3 3 3 3 4
8 7 5 5 8 13 11 13 13 9 15 12 9 9 8 6 5 7 8 9 6 5 3 3 2 2 4 4 5 6 7 7 7 7 7 7 6 6 7 7 7 7 7 7 7 7 7 7 7 7 7 7 6 6
3 4 5 8 13 12 11 12 11 17 17 12 10 12 13 8 4 6 7 5 5 4 3 1 2 2 3 4 5 5 6 7 7 7 6 6 6 7 7 7 7 8 8 9 9 10 10 10 9 9 8 7 6 6
3 4 9 13 13 15 17 20 19 15 12 10 13 10 5 4 4 5 5 5 4 3 2 2 2 3 4 5 5 5 5 5 5 5 5 5 6 6 7 7 7 8 8 8 9 9 8 8 7 6 6 5 5 6
10 16 17 20 21 22 22 20 17 14 11 10 8 6 4 4 8 9 8 7 6 5 4 4 5 5 5 6 6 7 7 6 6 6 6 6 6 6 6 7 7 7 7 7 7 7 7 7 7 7 7 7 7 7
25 26 24 25 23 22 17 15 18 18 17 16 16 16 16 14 12 10 9 7 6 6 6 6 6 6 6 6 6 6 6 6 6 6 7 7 6 6 6 6 7 6 6 6 6 5 5 5 5 4 4 5 5 5
26 25 25 23 21 21 19 18 19 19 19 17 13 15 15 14 13 12 10 8 7 7 7 7 6 6 7 7 6 7 7 7 7 7 7 8 8 8 8 7 7 8 7 7 7 7 7 7 7 7 7 8 8 8
26 25 23 21 22 24 22 20 19 18 16 14 15 14 13 13 12 12 10 8 8 8 8 8 8 7 6 7 8 7 6 7 7 7 7 8 8 8 8 9 9 9 9 10 9 9 8 8 8 9 9 9 10 10
26 25 22 17 23 24 23 21 17 16 15 13 11 11 10 10 9 9 9 8 7 7 7 8 8 8 7 6 6 6 6 6 7 7 8 8 9 9 9 8 8 8 8 8 8 8 8 8 9 9 10 10 10 10
27 27 20 20 24 24 22 21 18 15 12 10 8 7 7 6 6 7 8 8 8 7 7 7 8 8 7 7 7 7 7 7 7 8 8 8 8 8 8 8 7 7 7 7 7 7 7 7 8 8 8 9 10 10
Wind_Direction
236 237 244 246 246 248 253 255 249 245 247 247 240 227 216 213 222 236 239 240 241 250 250 259 262 262 255 254 283 278 337 344 328 307 275 262 268 269 275 275 288 222 201 213 219 222 254 37 210 221 124 104 337 331
234 233 239 243 242 245 250 250 243 242 245 242 225 221 215 211 217 232 239 242 248 251 252 250 247 247 250 249 255 263 273 304 310 332 311 336 272 286 304 302 316 197 202 198 207 222 170 194 171 203 186 204 232 285
233 238 235 234 239 243 247 242 239 240 242 226 220 220 218 217 221 228 234 239 244 255 258 250 243 255 260 247 250 258 259 270 278 316 348 327 274 312 325 333 332 345 180 194 206 224 212 210 245 258 184 238 206 250
234 230 239 242 235 238 239 237 235 237 228 223 222 221 218 217 220 225 230 235 236 245 259 265 264 248 231 247 245 262 266 263 265 280 296 318 329 343 331 324 328 2 197 206 212 204 207 219 227 204 219 208 226 263
230 231 227 233 234 235 232 232 230 228 228 223 222 219 220 220 222 225 229 230 231 230 253 321 202 234 229 231 252 271 259 261 261 267 284 309 322 331 317 308 310 23 28 204 198 226 227 224 219 189 229 226 256 274
226 227 224 222 230 228 226 224 226 219 211 207 210 213 214 210 209 214 226 226 229 233 248 263 259 248 263 230 243 241 245 242 243 253 268 277 300 314 310 306 334 349 349 347 357 138 172 163 156 140 173 234 268 289
222 220 220 224 223 218 219 211 204 205 202 202 199 200 203 198 195 202 217 242 248 228 238 252 271 283 245 254 264 257 225 225 235 246 254 265 285 301 286 292 298 318 335 347 98 101 89 113 123 144 266 291 305 298
212 214 220 215 212 207 198 196 196 197 195 190 187 191 189 188 197 218 204 225 215 230 220 229 240 247 234 281 230 208 219 224 234 244 253 265 279 288 264 237 280 296 303 316 346 8 353 17 3 325 310 307 303 302
212 210 206 207 198 193 200 198 198 201 198 187 188 185 186 194 207 201 203 206 200 216 211 229 236 251 252 266 246 230 221 226 232 245 256 261 265 243 248 256 264 277 291 302 304 303 303 305 301 306 291 290 294 295
199 198 197 190 198 206 200 188 199 193 185 183 178 176 188 194 195 199 202 220 228 230 239 248 251 243 255 266 282 197 211 214 226 244 246 247 249 253 262 262 274 277 273 283 280 273 292 291 293 301 294 287 286 284
191 195 193 192 190 186 183 185 184 177 178 175 174 178 186 186 194 193 189 199 208 222 243 251 255 253 247 267 289 204 199 209 221 237 214 220 214 242 254 262 266 270 280 287 285 282 286 288 292 292 289 284 283 281
187 186 183 184 188 192 190 178 171 182 182 182 178 172 174 177 180 193 189 184 206 218 227 237 241 229 241 276 232 196 187 194 232 212 196 219 229 244 253 263 271 277 281 284 292 292 288 289 291 289 282 282 284 284
199 192 189 186 183 178 174 176 180 178 175 171 163 170 173 178 184 189 187 176 198 210 213 216 222 204 218 239 287 184 214 194 230 212 200 232 235 241 250 260 268 274 278 285 290 292 289 286 284 282 282 284 283 280
190 187 183 180 173 170 176 171 175 175 173 161 158 168 179 189 187 175 190 211 201 202 223 201 204 202 216 224 245 248 211 214 220 228 231 263 226 240 250 262 269 272 275 278 281 284 286 286 285 285 284 281 279 280
160 161 162 163 165 167 168 171 170 173 162 150 154 178 190 189 182 192 195 208 197 206 218 190 192 201 198 210 203 204 216 227 231 237 238 225 241 254 259 266 272 276 278 281 285 289 290 289 288 287 284 281 278 278
126 137 146 150 155 157 160 170 170 162 156 158 176 176 183 181 178 172 162 175 201 205 188 178 185 195 201 193 197 195 215 221 236 247 244 250 262 267 273 278 285 289 292 294 295 297 296 293 290 288 286 284 281 278
121 127 137 143 148 156 164 167 159 156 165 181 174 174 173 174 175 185 190 199 203 198 190 187 197 190 163 198 203 206 223 221 205 217 256 287 291 293 293 297 301 301 299 298 297 297 298 297 296 294 291 288 284 280
116 128 136 139 146 153 157 165 163 162 183 180 174 182 184 190 203 204 206 203 201 200 199 205 206 203 212 222 226 230 240 250 249 254 262 275 282 288 296 301 302 304 306 305 304 300 299 301 300 300 296 292 285 278
112 132 142 138 145 118 136 149 159 163 167 170 196 202 194 211 212 212 214 212 208 206 208 220 229 230 235 248 247 246 253 260 263 262 267 272 282 292 301 305 306 308 307 308 306 304 306 305 303 298 296 294 282 261
126 132 130 145 164 161 131 144 134 148 168 173 172 182 191 198 191 194 198 201 204 208 217 227 239 247 242 239 245 251 265 269 267 274 285 294 302 308 310 309 308 309 308 312 315 315 322 322 321 39 89 110 118 120
136 136 149 160 168 170 160 178 200 187 178 172 174 169 179 175 178 188 194 196 205 213 224 233 238 241 245 253 260 261 261 264 277 286 294 304 302 306 304 300 300 302 307 345 3 37 59 83 89 99 103 105 108 111
147 162 166 163 170 174 172 176 178 174 160 159 157 166 170 168 177 190 194 200 205 208 212 218 226 235 244 252 259 264 268 275 281 288 293 293 292 292 291 291 296 298 36 85 106 104 99 96 97 92 87 80 72 70
141 146 150 152 157 140 138 140 140 142 143 158 157 160 166 169 179 181 180 175 176 175 169 168 187 239 269 273 271 273 275 275 274 274 277 282 284 286 288 286 278 246 170 151 143 130 120 105 66 33 13 0 353 346
143 147 159 174 161 153 161 160 160 143 149 154 159 140 139 142 139 150 159 151 150 145 146 144 159 234 271 281 286 284 284 288 289 287 285 284 285 285 281 273 265 253 239 222 221 234 262 281 289 295 299 301 304 305
151 159 161 143 131 149 157 161 164 157 155 152 149 136 136 134 131 121 135 136 130 118 93 60 36 346 329 330 324 312 306 303 299 294 291 287 281 275 271 266 261 257 255 257 262 269 277 282 284 284 283 283 284 284
165 158 166 151 144 148 148 150 155 144 140 131 129 129 129 118 94 110 122 113 109 111 109 27 341 326 321 320 323 319 319 320 317 311 304 292 284 282 281 276 272 271 273 275 279 281 283 284 285 285 284 280 278 276
170 155 152 150 150 148 142 135 135 136 131 128 136 134 116 91 86 118 115 106 95 77 54 10 338 333 330 327 326 326 326 326 324 320 317 314 308 300 295 291 289 287 285 283 280 279 280 281 281 277 274 272 268 258
140 136 136 131 133 132 129 128 127 118 120 127 126 107 89 102 115 96 81 64 56 40 26 6 351 343 337 332 330 329 325 326 326 320 311 303 300 296 295 296 295 290 287 285 283 281 279 278 278 282 280 272 263 257
131 130 133 132 133 131 132 127 117 112 107 103 102 100 100 95 89 76 62 49 34 21 13 357 349 346 342 335 331 326 323 322 320 315 308 309 309 305 303 300 295 296 298 294 288 285 283 282 281 283 283 282 283 283
143 140 142 142 138 129 124 120 117 113 109 101 99 101 98 90 81 70 61 50 34 19 10 6 0 347 338 337 335 330 328 325 323 319 318 315 314 312 312 310 302 301 301 294 294 294 291 286 284 281 277 276 277 275
153 151 152 149 136 130 128 127 123 117 112 113 107 99 85 78 73 62 53 40 24 15 5 357 358 360 354 340 340 340 334 331 326 323 319 315 309 305 301 299 299 296 294 293 293 290 288 286 282 279 279 280 281 282
160 161 166 157 147 144 140 138 132 129 124 116 106 97 85 72 64 49 40 33 20 6 356 349 349 351 350 346 344 345 343 337 329 324 320 317 315 313 311 308 306 304 300 297 296 294 290 287 288 287 287 286 284 282
167 170 171 157 152 152 151 146 144 141 135 128 119 103 85 64 52 31 19 13 8 360 350 344 340 336 334 334 332 331 330 330 329 326 323 321 318 315 313 312 310 307 304 301 300 298 296 293 289 289 290 290 291 291